Regional Weather Roundup
Issued by NWS

Home | Current Version | Previous Version | Graphics & Text | Print | Product List | Glossary On
Versions: 1 2 3 4 5 6 7 8 9 10 11 12 13 14 15 16 17 18 19 20 21 22 23 24 25 26 27 28 29 30 31 32 33 34 35 36 37 38 39 40 41 42 43 44 45 46 47 48 49 50
000
ASUS43 KFSD 291710
RWRSD

WEATHER ROUNDUP FOR SOUTH DAKOTA
NATIONAL WEATHER SERVICE SIOUX FALLS SD
1100 AM CST THU JAN 29 2015

NOTE: "FAIR" INDICATES FEW OR NO CLOUDS BELOW 12,000 FEET WITH NO
SIGNIFICANT WEATHER AND/OR OBSTRUCTIONS TO VISIBILITY.


SDZ001>005-009-010-012>017-291800-
NORTHWEST AND NORTH CENTRAL SOUTH DAKOTA

CITY           SKY/WX    TMP DP  RH WIND       PRES   REMARKS
BUFFALO          N/A     32  24  72 W14       30.40R WCI  22
FAITH            N/A     30  22  72 NW15      30.46S WCI  19
MOBRIDGE       CLOUDY    31  20  63 NW17G26   30.46R WCI  19
$$

SDZ012>016-024>037-041>051-057-063-072>074-291800-
SOUTHWEST AND SOUTH CENTRAL SOUTH DAKOTA

CITY           SKY/WX    TMP DP  RH WIND       PRES   REMARKS
RAPID CTY ARPT SUNNY     34  21  59 SE3       30.47R
PIERRE         CLOUDY    35  23  61 N20G26    30.48R WCI  24
CUSTER         SUNNY     35 -13  12 SW3       30.41R
ELLSWORTH AFB  SUNNY     39  12  33 NW8       30.47R
PHILIP         SUNNY     36  24  62 NW15      30.50R
PINE RIDGE     SUNNY     33  25  72 W8        30.50R WCI  26
WINNER         FAIR      38  23  55 NW25G32   30.46R
$$

SDZ004>011-016>023-039-040-291800-
NORTHEAST SOUTH DAKOTA

CITY           SKY/WX    TMP DP  RH WIND       PRES   REMARKS
ABERDEEN       CLOUDY    27  20  75 N20       30.47R WCI  13
WATERTOWN      CLOUDY    26  20  77 NW22G31   30.39R WCI  12
SISSETON         N/A     25  22  88 N22       30.42  WCI  10
$$

SDZ017-020-022-023-036>040-048>070-291800-
SOUTHEAST SOUTH DAKOTA

CITY           SKY/WX    TMP DP  RH WIND       PRES   REMARKS
SIOUX FALLS    CLOUDY    32  23  69 N20G33    30.39R WCI  20
HURON          CLOUDY    30  21  69 NW21G28   30.45R WCI  17
CHAMBERLAIN    SUNNY     33  24  68 N18G26    30.47R WCI  22
MITCHELL         N/A     34  25  69 MISG      30.45R
YANKTON        CLOUDY    36  27  69 NW20      30.44R
$$

ABBREVIATIONS USED IN REMARKS
   TC - TEMPERATURE IN CELSIUS
  WCI - WIND CHILL INDEX
   HX - HEAT INDEX
  VSB - VISIBILITY



USA.gov is the U.S. government's official web portal to all federal, state and local government web resources and services.